AMAT2: Canadian River Nr Amarillo, TX

                                SHEF ID:       AMAT2     Canadian Rv nr Amarillo, TX
STATION TYPE:
Regulating: Stage = 13.00, Flow = 11994

PRECIP STAGE RIV-FLOW WTR-TEMP CONDUCT BAT-LOAD
in ft cfs F umho/cm volt
Ccp-Rev Ccp-Rev Ccp-Rev Ccp-Rev Ccp-Rev Ccp-Rev
(America/Chicago)
07/02 00:00 ---- 1.85 169 78.46 1 12.62
07/02 01:00 ---- 1.85 169 77.72 1 12.61
07/02 02:00 ---- 1.85 169 76.98 1 12.61
07/02 03:00 ---- 1.84 151 76.32 1 12.59
07/02 04:00 ---- 1.82 146 75.69 1 12.57
07/02 05:00 ---- 1.83 149 75.09 1 12.55
07/02 06:00 ---- 1.83 149 74.62 1 12.53
07/02 07:00 ---- 1.83 149 74.19 1 12.57
07/02 08:00 ---- 1.84 151 73.94 1 12.67
07/02 09:00 ---- 1.82 146 73.87 1 13.28
07/02 10:00 ---- 1.82 146 74.32 1 13.55
07/02 11:00 ---- 1.80 142 75.15 1 13.55
07/02 12:00 ---- 1.79 140 76.19 1 13.72
07/02 13:00 ---- 1.79 140 77.23 1 13.71
07/02 14:00 ---- 1.79 140 78.66 1 13.66
07/02 15:00 ---- 1.78 137 80.46 1 13.63
07/02 16:00 ---- 1.76 132 81.37 1 13.53
07/02 17:00 ---- 1.77 135 81.63 1 13.51
07/02 18:00 ---- 1.77 135 81.79 1 13.37
07/02 19:00 ---- 1.74 127 81.16 1 13.26
07/02 20:00 ---- 1.74 127 80.42 1 12.99
07/02 21:00 ---- 1.75 130 79.65 1 12.71
07/02 22:00 ---- 1.74 127 78.76 1 12.63
07/02 23:00 ---- 1.73 125 77.97 1 12.62
Data processed at Thu 03Jul2025 04:15 GMT

Parsing this webpage?

Checkout our new Data API! CWMSDataAPI (CDA)

Timeseries IDs (TSIDs)

TSIDs used from left to right in the data table
AMAR.Precip-Inc.Total.1Hour.1Hour.Ccp-Rev
AMAR.Stage.Inst.1Hour.0.Ccp-Rev
AMAR.Flow.Inst.1Hour.0.Ccp-Rev
AMAR.Temp-Water.Inst.1Hour.0.Ccp-Rev
AMAR.Cond-Water.Inst.1Hour.0.Ccp-Rev
AMAR.Volt-Battery Load.Inst.1Hour.0.Ccp-Rev

                            

All information presented herein is the property of the government of the United States of America and may be revised or deleted at any time without prior notice. Dissemination of this information without the expressed written consent of the Public Affairs Office, Tulsa District U.S. Army Corps of Engineers is strictly prohibited. These data are gathered electronically and, as presented, have NOT undergone any form of quality control. These data are NOT guaranteed to be valid or correct.